N6OIM Weather Reports


Display with metric or nautical units.
time (UTC)temp
F
wind
direction
speed
MPH
gust
MPH
rain 1hr
in
rain 24hr
in
rain mn
in
humidity
%
barometer
mb
20260507162319 65 28 0.0 0.0 0.00 0.00 0.00 75 1017.2
20260507161828 65 28 0.0 0.0 0.00 0.00 0.00 76 1017.3
20260507161316 64 28 0.0 0.0 0.00 0.00 0.00 77 1017.3
20260507160831 64 28 0.0 0.0 0.00 0.00 0.00 78 1017.3
20260507160319 64 26 0.0 0.0 0.00 0.00 0.00 79 1017.3
20260507155827 63 26 0.0 0.0 0.00 0.00 0.00 79 1017.3
20260507155333 63 25 0.0 0.0 0.00 0.00 0.00 80 1017.3
20260507154822 63 26 0.0 0.0 0.00 0.00 0.00 80 1017.3
20260507154329 62 26 0.0 0.0 0.00 0.00 0.00 81 1017.3
20260507153818 62 26 0.0 0.0 0.00 0.00 0.00 82 1017.4
20260507153329 62 26 0.0 0.0 0.00 0.00 0.00 83 1017.3
20260507152820 61 19 0.0 0.0 0.00 0.00 0.00 84 1017.3
20260507152332 61 20 0.0 0.0 0.00 0.00 0.00 86 1017.3
20260507151820 60 20 0.0 0.0 0.00 0.00 0.00 87 1017.3
20260507151329 60 11 0.0 0.0 0.00 0.00 0.00 87 1017.3
20260507150819 60 11 0.0 0.0 0.00 0.00 0.00 88 1017.3
20260507150328 59 12 0.0 0.0 0.00 0.00 0.00 88 1017.3
20260507145818 59 12 0.0 0.0 0.00 0.00 0.00 88 1017.3
20260507145326 58 11 0.0 0.0 0.00 0.00 0.00 89 1017.3
20260507144835 58 11 0.0 0.0 0.00 0.00 0.00 89 1017.3
20260507144322 58 11 0.0 0.0 0.00 0.00 0.00 89 1017.3
20260507143815 57 11 0.0 0.0 0.00 0.00 0.00 89 1017.3
20260507143327 57 12 0.0 0.0 0.00 0.00 0.00 89 1017.3
20260507142835 56 11 0.0 0.0 0.00 0.00 0.00 88 1017.2
20260507142323 56 12 0.0 0.0 0.00 0.00 0.00 88 1017.2
20260507141834 56 12 0.0 0.0 0.00 0.00 0.00 88 1017.1
20260507141322 56 12 0.0 0.0 0.00 0.00 0.00 88 1017.1
20260507140831 56 11 0.0 0.0 0.00 0.00 0.00 88 1017.1
20260507140318 56 12 0.0 0.0 0.00 0.00 0.00 88 1017.0
20260507135828 56 11 0.0 0.0 0.00 0.00 0.00 87 1017.0
20260507135321 56 11 0.0 0.0 0.00 0.00 0.00 87 1016.9
20260507134830 56 12 0.0 0.0 0.00 0.00 0.00 87 1016.8
20260507134319 56 12 0.0 0.0 0.00 0.00 0.00 87 1016.8
20260507133829 56 11 0.0 0.0 0.00 0.00 0.00 87 1016.8
20260507133318 56 12 0.0 0.0 0.00 0.00 0.00 87 1016.8
20260507132825 56 12 0.0 0.0 0.00 0.00 0.00 87 1016.6
20260507132336 56 12 0.0 0.0 0.00 0.00 0.00 87 1016.6
20260507131824 56 12 0.0 0.0 0.00 0.00 0.00 87 1016.6
20260507131332 56 11 0.0 0.0 0.00 0.00 0.00 86 1016.5
20260507130825 56 11 0.0 0.0 0.00 0.00 0.00 86 1016.5
20260507130333 56 12 0.0 0.0 0.00 0.00 0.00 86 1016.6
20260507125821 56 11 0.0 0.0 0.00 0.00 0.00 86 1016.5
20260507125329 56 12 0.0 0.0 0.00 0.00 0.00 86 1016.5
20260507124817 56 12 0.0 0.0 0.00 0.00 0.00 86 1016.5
20260507124327 56 12 0.0 0.0 0.00 0.00 0.00 86 1016.5
20260507123837 56 12 0.0 0.0 0.00 0.00 0.00 86 1016.5
20260507123325 56 11 0.0 0.0 0.00 0.00 0.00 86 1016.4
20260507122818 56 12 0.0 0.0 0.00 0.00 0.00 86 1016.3
20260507122326 56 11 0.0 0.0 0.00 0.00 0.00 86 1016.3
20260507121835 56 12 0.0 0.0 0.00 0.00 0.00 86 1016.4
20260507121323 56 11 0.0 0.0 0.00 0.00 0.00 86 1016.4
20260507120832 57 12 0.0 0.0 0.00 0.00 0.00 86 1016.4
20260507120320 57 11 0.0 0.0 0.00 0.00 0.00 86 1016.4
20260507115829 57 12 0.0 0.0 0.00 0.00 0.00 86 1016.4
20260507115316 57 12 0.0 0.0 0.00 0.00 0.00 86 1016.5
20260507114828 57 11 0.0 0.0 0.00 0.00 0.00 86 1016.4
20260507114320 57 12 0.0 0.0 0.00 0.00 0.00 86 1016.4
20260507113826 57 12 0.0 0.0 0.00 0.00 0.00 85 1016.4
20260507113318 57 12 0.0 0.0 0.00 0.00 0.00 85 1016.5
20260507112826 57 12 0.0 0.0 0.00 0.00 0.00 85 1016.5
20260507112335 57 12 0.0 0.0 0.00 0.00 0.00 85 1016.4
20260507111825 57 11 0.0 0.0 0.00 0.00 0.00 85 1016.5
20260507111333 57 12 0.0 0.0 0.00 0.00 0.00 85 1016.5
20260507110822 57 12 0.0 0.0 0.00 0.00 0.00 85 1016.4
20260507110330 57 12 0.0 0.0 0.00 0.00 0.00 84 1016.3
20260507105823 57 11 0.0 0.0 0.00 0.00 0.00 84 1016.4
20260507105335 57 12 0.0 0.0 0.00 0.00 0.00 84 1016.4
20260507104825 57 12 0.0 0.0 0.00 0.00 0.00 83 1016.3
20260507104333 57 11 0.0 0.0 0.00 0.00 0.00 83 1016.4
20260507103823 57 11 0.0 0.0 0.00 0.00 0.00 83 1016.4
20260507103332 58 12 0.0 0.0 0.00 0.00 0.00 83 1016.3
20260507102824 58 12 0.0 0.0 0.00 0.00 0.00 83 1016.4
20260507102331 58 12 0.0 0.0 0.00 0.00 0.00 83 1016.3
20260507101820 58 12 0.0 0.0 0.00 0.00 0.00 83 1016.4
20260507101332 58 12 0.0 0.0 0.00 0.00 0.00 83 1016.3
20260507100825 58 12 0.0 0.0 0.00 0.00 0.00 83 1016.4
20260507100334 58 11 0.0 0.0 0.00 0.00 0.00 83 1016.3
20260507095822 58 12 0.0 0.0 0.00 0.00 0.00 83 1016.3
20260507095330 58 12 0.0 0.0 0.00 0.00 0.00 82 1016.4
20260507094821 58 12 0.0 0.0 0.00 0.00 0.00 82 1016.3
20260507094330 59 12 0.0 0.0 0.00 0.00 0.00 82 1016.3
20260507093818 59 12 0.0 0.0 0.00 0.00 0.00 82 1016.2
20260507093331 59 11 0.0 0.0 0.00 0.00 0.00 82 1016.3
20260507092824 59 11 0.0 0.0 0.00 0.00 0.00 82 1016.4
20260507092332 59 12 0.0 0.0 0.00 0.00 0.00 82 1016.4
20260507091820 59 11 0.0 0.0 0.00 0.00 0.00 82 1016.4
20260507091327 59 12 0.0 0.0 0.00 0.00 0.00 82 1016.4
20260507090836 60 12 0.0 0.0 0.00 0.00 0.00 82 1016.4
20260507090325 60 12 0.0 0.0 0.00 0.00 0.00 82 1016.5
20260507085833 60 12 0.0 0.0 0.00 0.00 0.00 82 1016.5
20260507085321 60 11 0.0 0.0 0.00 0.00 0.00 82 1016.4
20260507084830 60 12 0.0 0.0 0.00 0.00 0.00 82 1016.5
20260507084322 60 12 0.0 0.0 0.00 0.00 0.00 82 1016.4
20260507083832 60 11 0.0 0.0 0.00 0.00 0.00 82 1016.5
20260507083320 60 12 0.0 0.0 0.00 0.00 0.00 81 1016.5
20260507082829 60 12 0.0 0.0 0.00 0.00 0.00 81 1016.4
20260507082319 61 12 0.0 0.0 0.00 0.00 0.00 81 1016.5
20260507081831 61 12 0.0 0.0 0.00 0.00 0.00 81 1016.5
20260507081319 61 11 0.0 0.0 0.00 0.00 0.00 81 1016.5
20260507080831 61 12 0.0 0.0 0.00 0.00 0.00 81 1016.6
20260507080323 61 12 0.0 0.0 0.00 0.00 0.00 81 1016.6
20260507075832 61 12 0.0 0.0 0.00 0.00 0.00 80 1016.6
20260507075320 61 9 0.0 0.0 0.00 0.00 0.00 81 1016.6
20260507074830 61 9 0.0 0.0 0.00 0.00 0.00 81 1016.6
20260507074323 62 5 0.0 0.0 0.00 0.00 0.00 81 1016.5
20260507073831 62 5 0.0 0.0 0.00 0.00 0.00 80 1016.5
20260507073320 62 5 0.0 0.0 0.00 0.00 0.00 80 1016.6
20260507072829 62 9 0.0 0.0 0.00 0.00 0.00 80 1016.6
20260507072317 62 5 0.0 0.0 0.00 0.00 0.00 80 1016.6
20260507071831 62 5 0.0 0.0 0.00 0.00 0.00 80 1016.7
20260507071320 62 5 0.0 0.0 0.00 0.00 0.00 80 1016.6
20260507070829 63 5 0.0 0.0 0.00 0.00 0.00 79 1016.6
20260507070320 63 360 0.0 0.0 0.00 0.00 0.00 79 1016.6
20260507065827 63 360 0.0 0.0 0.00 0.00 0.00 78 1016.5
20260507065319 63 360 0.0 0.0 0.00 0.00 0.00 78 1016.5
20260507064829 63 360 0.0 0.0 0.00 0.00 0.00 77 1016.4
20260507064318 63 360 0.0 0.0 0.00 0.00 0.00 77 1016.4
20260507063827 63 360 0.0 0.0 0.00 0.00 0.00 76 1016.4
20260507063319 64 360 0.0 0.0 0.00 0.00 0.00 76 1016.4
20260507062828 64 360 0.0 0.0 0.00 0.00 0.00 76 1016.3
20260507062319 64 360 0.0 0.0 0.00 0.00 0.00 75 1016.3
20260507061828 64 360 0.0 0.0 0.00 0.00 0.00 76 1016.2
20260507061316 64 360 0.0 0.0 0.00 0.00 0.00 76 1016.3
20260507060829 64 360 0.0 0.0 0.00 0.00 0.00 76 1016.2
20260507060318 64 360 0.0 0.0 0.00 0.00 0.00 76 1016.2
20260507055828 65 360 0.0 0.0 0.00 0.00 0.00 75 1016.2
20260507055322 65 360 0.0 0.0 0.00 0.00 0.00 75 1016.2
20260507054835 65 360 0.0 0.0 0.00 0.00 0.00 75 1016.2
20260507054324 65 360 0.0 0.0 0.00 0.00 0.00 75 1016.3
20260507053834 65 360 0.0 0.0 0.00 0.00 0.00 75 1016.3
20260507053323 65 360 0.0 0.0 0.00 0.00 0.00 75 1016.2
20260507052836 65 360 0.0 0.0 0.00 0.00 0.00 74 1016.3
20260507052323 65 360 0.0 0.0 0.00 0.00 0.00 74 1016.2
20260507051836 65 360 0.0 0.0 0.00 0.00 0.00 74 1016.2
20260507051323 66 360 0.0 0.0 0.00 0.00 0.00 75 1016.2
20260507050836 66 360 0.0 0.0 0.00 0.00 0.00 75 1016.1
20260507050325 66 360 0.0 0.0 0.00 0.00 0.00 74 1016.1
20260507045834 66 360 0.0 0.0 0.00 0.00 0.00 74 1016.2
20260507045321 66 360 0.0 0.0 0.00 0.00 0.00 73 1016.2
20260507044831 66 360 0.0 0.0 0.00 0.00 0.00 73 1016.2
20260507044318 67 360 0.0 0.0 0.00 0.00 0.00 72 1016.1
20260507043828 67 360 0.0 0.0 0.00 0.00 0.00 72 1016.1
20260507043316 67 360 0.0 0.0 0.00 0.00 0.00 71 1016.1
20260507042825 67 360 0.0 0.0 0.00 0.00 0.00 70 1015.9
20260507042317 68 360 0.0 0.0 0.00 0.00 0.00 70 1015.9
20260507041825 68 360 0.0 0.0 0.00 0.00 0.00 70 1015.8
20260507041333 68 360 0.0 0.0 0.00 0.00 0.00 69 1015.7
20260507040822 68 360 0.0 0.0 0.00 0.00 0.00 67 1015.6
20260507040329 69 360 0.0 0.0 0.00 0.00 0.00 68 1015.5
20260507035821 69 360 0.0 0.0 0.00 0.00 0.00 67 1015.5
20260507035328 69 360 0.0 0.0 0.00 0.00 0.00 66 1015.4
20260507034818 70 360 0.0 0.0 0.00 0.00 0.00 65 1015.5
20260507034325 70 360 0.0 0.0 0.00 0.00 0.00 65 1015.4
20260507033819 71 360 0.0 0.0 0.00 0.00 0.00 64 1015.4
20260507033327 71 360 0.0 0.0 0.00 0.00 0.00 63 1015.4
20260507032835 71 360 0.0 0.0 0.00 0.00 0.00 62 1015.3
20260507032322 72 360 0.0 0.0 0.00 0.00 0.00 62 1015.3
20260507031830 72 360 0.0 0.0 0.00 0.00 0.00 61 1015.2
20260507031317 73 360 0.0 0.0 0.00 0.00 0.00 60 1015.2
20260507030826 73 360 0.0 0.0 0.00 0.00 0.00 60 1015.1
20260507030337 73 360 0.0 0.0 0.00 0.00 0.00 59 1015.1
20260507025826 74 360 0.0 0.0 0.00 0.00 0.00 58 1015.1
20260507025318 74 360 0.0 0.0 0.00 0.00 0.00 57 1015.1
20260507024826 74 360 0.0 0.0 0.00 0.00 0.00 57 1015.2
20260507024333 74 360 0.0 0.0 0.00 0.00 0.00 57 1015.1
20260507023822 75 360 0.0 0.0 0.00 0.00 0.00 56 1015.1
20260507023333 75 360 0.0 0.0 0.00 0.00 0.00 56 1015.1
20260507022821 75 360 0.0 0.0 0.00 0.00 0.00 55 1015.1
20260507022330 75 360 0.0 0.0 0.00 0.00 0.00 54 1015.0
20260507021819 75 360 0.0 0.0 0.00 0.00 0.00 54 1015.1
20260507021327 76 360 0.0 0.0 0.00 0.00 0.00 54 1015.1
20260507020821 76 360 0.0 0.0 0.00 0.00 0.00 54 1015.2
20260507020331 76 360 0.0 0.0 0.00 0.00 0.00 54 1015.1
20260507015819 76 360 0.0 0.0 0.00 0.00 0.00 53 1015.1
20260507015327 76 360 0.0 0.0 0.00 0.00 0.00 53 1015.1
20260507014817 76 360 0.0 0.0 0.00 0.00 0.00 52 1015.1
20260507014326 77 360 0.0 0.0 0.00 0.00 0.00 51 1015.1
20260507013835 77 360 0.0 0.0 0.00 0.00 0.00 51 1015.2
20260507013322 78 360 0.0 0.0 0.00 0.00 0.00 51 1015.2
20260507012830 78 360 0.0 0.0 0.00 0.00 0.00 50 1015.2
20260507012324 78 360 0.0 0.0 0.00 0.00 0.00 50 1015.1
20260507011832 79 360 0.0 0.0 0.00 0.00 0.00 50 1015.1
20260507011319 79 360 0.0 0.0 0.00 0.00 0.00 50 1015.2
20260507010828 79 360 0.0 0.0 0.00 0.00 0.00 50 1015.2
20260507010336 78 360 0.0 0.0 0.00 0.00 0.00 50 1015.2
20260507005824 78 5 0.0 0.0 0.00 0.00 0.00 51 1015.2
20260507005333 78 5 0.0 0.0 0.00 0.00 0.00 51 1015.2
20260507004822 78 360 0.0 0.0 0.00 0.00 0.00 51 1015.2
20260507004331 78 5 0.0 0.0 0.00 0.00 0.00 51 1015.2
20260507003825 77 5 0.0 0.0 0.00 0.00 0.00 51 1015.2
20260507003333 77 360 0.0 0.0 0.00 0.00 0.00 50 1015.3
20260507002821 77 5 0.0 0.0 0.00 0.00 0.00 51 1015.2
20260507002328 77 5 0.0 0.0 0.00 0.00 0.00 52 1015.2
20260507001817 77 360 0.0 0.0 0.00 0.00 0.00 52 1015.3
20260507001327 77 5 0.0 0.0 0.00 0.00 0.00 51 1015.3
20260507000820 77 5 0.0 0.0 0.00 0.00 0.00 52 1015.4
20260507000332 77 5 0.0 0.0 0.00 0.00 0.00 51 1015.3
20260506235825 77 5 0.0 0.0 0.00 0.00 0.00 52 1015.3
20260506235333 77 360 0.0 0.0 0.00 0.00 0.00 50 1015.4
20260506234822 77 11 0.0 0.0 0.00 0.00 0.00 52 1015.3
20260506234330 77 5 0.0 0.0 0.00 0.00 0.00 52 1015.4
20260506233818 78 336 0.0 0.0 0.00 0.00 0.00 51 1015.4
20260506233326 77 269 0.0 0.0 0.00 0.00 0.00 51 1015.4
20260506232818 77 268 0.0 0.0 0.00 0.00 0.00 52 1015.5
20260506232327 77 269 0.0 0.0 0.00 0.00 0.00 52 1015.5
20260506231835 77 332 0.0 0.0 0.00 0.00 0.00 53 1015.7
20260506231327 77 340 0.0 0.0 0.00 0.00 0.00 53 1015.7
20260506230836 77 336 0.0 0.0 0.00 0.00 0.00 52 1015.7
20260506230323 77 335 0.0 0.0 0.00 0.00 0.00 52 1016.0
20260506225832 77 314 0.0 0.0 0.00 0.00 0.00 53 1015.9
20260506225320 76 280 0.0 0.0 0.00 0.00 0.00 53 1016.1
20260506224833 76 355 0.0 0.0 0.00 0.00 0.00 53 1016.1
20260506224320 76 355 0.0 0.0 0.00 0.00 0.00 52 1016.1
20260506223828 76 355 0.0 0.0 0.00 0.00 0.00 53 1016.3
20260506223336 76 355 0.0 0.0 0.00 0.00 0.00 53 1016.2
20260506222829 76 355 0.0 0.0 0.00 0.00 0.00 53 1016.3
20260506222317 76 360 0.0 0.0 0.00 0.00 0.00 53 1016.4
20260506221827 75 360 0.0 0.0 0.00 0.00 0.00 56 1016.4
20260506221336 75 360 0.0 0.0 0.00 0.00 0.00 55 1016.6
20260506220824 75 360 0.0 0.0 0.00 0.00 0.00 53 1016.7
20260506220332 75 360 0.0 0.0 0.00 0.00 0.00 55 1016.8
20260506215821 75 24 0.0 0.0 0.00 0.00 0.00 54 1016.8
20260506215330 74 51 0.0 0.0 0.00 0.00 0.00 55 1016.8
20260506214819 74 49 0.0 0.0 0.00 0.00 0.00 55 1016.9
20260506214332 74 360 0.0 0.0 0.00 0.00 0.00 58 1016.9
20260506213822 73 5 0.0 0.0 0.00 0.00 0.00 55 1016.9
20260506213331 73 355 0.0 0.0 0.00 0.00 0.00 56 1017.1
20260506212821 73 355 0.0 0.0 0.00 0.00 0.00 56 1017.2
20260506212332 73 64 0.0 0.0 0.00 0.00 0.00 55 1017.2
20260506211821 73 355 0.0 0.0 0.00 0.00 0.00 56 1017.3
20260506211330 73 342 0.0 0.0 0.00 0.00 0.00 57 1017.4
20260506210820 72 346 0.0 0.0 0.00 0.00 0.00 57 1017.4
20260506210329 72 327 0.0 0.0 0.00 0.00 0.00 58 1017.5
20260506205825 72 327 0.0 0.0 0.00 0.00 0.00 55 1017.5
20260506205333 72 326 0.0 0.0 0.00 0.00 0.00 58 1017.5
20260506204824 72 319 0.0 0.0 0.00 0.00 0.00 56 1017.6
20260506204333 72 360 0.0 0.0 0.00 0.00 0.00 56 1017.7
20260506203825 72 336 0.0 0.0 0.00 0.00 0.00 57 1017.8
20260506203317 72 328 0.0 0.0 0.00 0.00 0.00 58 1017.9
20260506202827 71 55 0.0 0.0 0.00 0.00 0.00 56 1017.8
20260506202335 71 30 0.0 0.0 0.00 0.00 0.00 58 1017.9
20260506201828 71 29 0.0 0.0 0.00 0.00 0.00 59 1018.1
20260506201335 71 30 0.0 0.0 0.00 0.00 0.00 58 1018.1
20260506200824 71 15 0.0 0.0 0.00 0.00 0.00 58 1018.1
20260506200332 71 360 0.0 0.0 0.00 0.00 0.00 58 1018.1
20260506195822 71 360 0.0 0.0 0.00 0.00 0.00 59 1018.1
20260506195330 71 360 0.0 0.0 0.00 0.00 0.00 60 1018.2
20260506194819 71 360 0.0 0.0 0.00 0.00 0.00 57 1018.3
20260506194327 71 360 0.0 0.0 0.00 0.00 0.00 58 1018.4
20260506193836 71 355 0.0 0.0 0.00 0.00 0.00 59 1018.5
20260506193328 71 355 0.0 0.0 0.00 0.00 0.00 59 1018.5
20260506192818 70 355 0.0 0.0 0.00 0.00 0.00 61 1018.6
20260506192328 70 355 0.0 0.0 0.00 0.00 0.00 61 1018.7
20260506191836 70 355 0.0 0.0 0.00 0.00 0.00 61 1018.7
20260506191324 70 355 0.0 0.0 0.00 0.00 0.00 62 1018.8
20260506190834 70 355 0.0 0.0 0.00 0.00 0.00 61 1018.8
20260506190321 69 349 0.0 0.0 0.00 0.00 0.00 63 1018.9
20260506185830 69 229 0.0 0.0 0.00 0.00 0.00 65 1018.8
20260506185319 69 222 0.0 0.0 0.00 0.00 0.00 64 1018.9
20260506184833 68 355 0.0 0.0 0.00 0.00 0.00 66 1018.9
20260506184321 68 360 0.0 0.0 0.00 0.00 0.00 67 1018.9
20260506183829 68 5 0.0 0.0 0.00 0.00 0.00 66 1018.8
20260506183317 68 5 0.0 0.0 0.00 0.00 0.00 65 1018.8
20260506182826 67 360 0.0 0.0 0.00 0.00 0.00 66 1018.8
20260506182334 67 360 0.0 0.0 0.00 0.00 0.00 68 1018.9
20260506181823 67 360 0.0 0.0 0.00 0.00 0.00 67 1019.0
20260506181332 67 360 0.0 0.0 0.00 0.00 0.00 67 1019.0
20260506180822 66 360 0.0 0.0 0.00 0.00 0.00 68 1019.0
20260506180335 66 360 0.0 0.0 0.00 0.00 0.00 69 1018.9
20260506175825 66 360 0.0 0.0 0.00 0.00 0.00 70 1018.9
20260506175333 65 360 0.0 0.0 0.00 0.00 0.00 71 1018.9
20260506174821 65 360 0.0 0.0 0.00 0.00 0.00 71 1018.9
20260506174329 65 360 0.0 0.0 0.00 0.00 0.00 72 1018.9
20260506173818 64 360 0.0 0.0 0.00 0.00 0.00 72 1018.9
20260506173327 64 360 0.0 0.0 0.00 0.00 0.00 72 1019.0
20260506172820 64 360 0.0 0.0 0.00 0.00 0.00 72 1019.0
20260506172332 63 360 0.0 0.0 0.00 0.00 0.00 73 1019.0
20260506171825 63 360 0.0 0.0 0.00 0.00 0.00 73 1019.0
20260506171333 63 360 0.0 0.0 0.00 0.00 0.00 73 1019.0
20260506170822 63 360 0.0 0.0 0.00 0.00 0.00 74 1019.0
20260506170330 62 360 0.0 0.0 0.00 0.00 0.00 75 1019.0
20260506165818 62 360 0.0 0.0 0.00 0.00 0.00 75 1019.0
20260506165326 62 360 0.0 0.0 0.00 0.00 0.00 75 1019.0
20260506164836 62 360 0.0 0.0 0.00 0.00 0.00 76 1019.0
20260506164324 62 360 0.0 0.0 0.00 0.00 0.00 76 1019.0
20260506163832 61 360 0.0 0.0 0.00 0.00 0.00 76 1019.0
20260506163324 61 360 0.0 0.0 0.00 0.00 0.00 77 1018.9
20260506162833 61 360 0.0 0.0 0.00 0.00 0.00 77 1018.9